Wind_Speed
12 12 12 12 12 12 12 12 12 13 13 13 13 12 11 10 9 8 7 6 4 3 3 3 2 2 2 3 3 4 3 4 5 6 7 8 9 10 11 12 12 12 11
11 11 11 11 11 12 12 13 13 13 13 12 12 12 11 10 9 8 7 6 4 4 4 3 3 3 3 2 3 4 5 5 5 6 7 8 9 10 11 12 12 12 13
10 10 11 10 10 11 12 12 12 12 12 12 12 12 12 10 9 8 7 7 5 5 4 4 4 3 3 3 3 4 5 6 6 7 8 8 9 10 11 11 12 13 13
9 9 10 10 10 11 12 12 12 12 12 12 11 12 12 11 10 9 8 7 6 5 5 5 5 4 4 4 4 4 5 6 7 7 8 9 10 11 12 13 13 14 15
8 8 9 9 9 10 10 11 11 11 11 11 11 11 11 10 10 9 9 7 7 6 6 5 5 4 5 5 5 6 6 7 7 8 8 9 10 11 12 13 13 14 15
7 8 8 8 9 9 10 10 11 11 10 10 10 10 10 10 10 10 9 8 7 7 7 7 6 6 6 6 7 7 8 8 9 9 10 10 10 11 11 12 12 13 14
6 6 7 8 9 9 9 10 10 10 10 9 9 9 9 10 10 10 9 8 7 7 7 7 7 7 7 7 8 8 9 9 9 10 10 10 10 11 11 12 13 14 14
5 5 6 7 8 9 9 9 9 9 9 9 9 9 9 9 9 9 9 9 8 8 8 8 8 9 9 9 9 9 10 10 10 10 10 10 11 11 11 12 13 13 14
5 5 5 6 8 8 9 9 9 9 10 10 9 9 9 9 9 9 9 9 9 9 9 10 10 10 10 10 11 10 11 11 11 11 11 11 12 12 13 13 13 14 14
5 4 5 6 7 8 8 9 8 8 10 10 9 9 10 10 9 9 9 9 9 10 10 11 11 11 12 12 12 12 11 11 11 11 11 11 12 12 13 13 13 13 14
5 5 5 6 6 7 8 8 9 9 9 9 9 9 10 10 10 10 10 11 11 11 11 12 12 13 13 14 13 13 12 13 13 12 12 11 12 12 12 13 13 14 15
6 6 6 7 7 7 7 8 9 9 9 9 9 10 10 10 11 11 12 12 12 12 13 13 14 14 14 14 13 14 13 13 13 13 12 12 12 12 12 13 13 14 15
7 7 8 7 7 7 8 9 9 9 9 9 10 10 11 11 11 12 12 13 13 13 14 14 14 14 14 14 14 14 14 14 13 13 13 13 13 13 13 13 14 15 16
10 9 8 8 8 8 9 9 10 9 9 9 10 11 12 12 12 12 13 14 14 14 14 15 15 14 14 14 14 14 14 14 13 14 13 13 14 14 14 14 15 16 16
13 12 11 9 9 9 9 10 10 10 10 10 11 12 12 13 13 13 14 14 14 15 15 15 14 14 15 15 15 14 15 14 14 14 14 14 15 15 16 16 16 17 17
15 13 12 11 10 10 10 11 11 11 11 12 12 13 13 14 15 15 15 14 14 15 15 16 15 15 15 15 15 15 14 14 14 14 14 15 15 16 17 17 17 18 18
18 16 14 12 12 12 12 12 12 12 13 13 13 14 14 15 15 15 15 15 15 15 15 16 16 16 16 16 15 15 15 15 16 15 15 16 16 17 17 18 18 19 19
20 18 15 14 14 13 13 13 13 13 13 13 14 15 15 15 15 16 16 16 16 16 16 16 17 17 17 17 17 17 17 17 17 17 17 18 18 19 19 19 20 20 21
21 20 18 17 16 15 15 15 15 15 15 15 16 16 16 16 16 17 17 17 16 17 17 18 18 18 17 17 18 18 18 18 18 19 19 20 20 20 21 21 21 21 22
24 21 20 19 18 17 16 16 16 16 17 17 18 17 17 17 18 18 18 17 18 18 18 18 19 19 19 19 19 19 19 20 20 20 20 21 21 21 22 22 22 22 22
25 22 21 20 20 19 18 18 17 17 18 19 19 18 18 19 19 18 18 18 19 19 19 19 20 20 20 20 20 21 21 22 22 22 22 22 23 23 23 23 23 23 24
25 24 23 22 21 21 20 20 20 19 20 20 20 20 20 20 20 20 20 20 20 20 20 20 20 21 21 21 22 22 23 23 23 23 24 24 24 24 24 24 24 24 24
28 27 25 23 23 23 22 22 21 21 21 21 22 22 22 22 21 21 22 21 22 22 22 22 22 22 23 23 23 24 24 24 24 24 25 25 24 24 24 25 25 25 25
29 28 27 26 25 25 24 23 23 24 23 23 24 24 24 23 23 23 23 23 23 23 23 23 23 23 24 24 24 24 24 24 24 25 25 25 25 25 24 25 25 25 25
30 29 28 28 27 27 26 25 25 25 25 25 25 25 25 25 25 24 24 24 24 24 24 24 24 24 25 25 25 25 24 24 25 25 25 25 25 25 25 25 25 25 25
31 30 30 28 28 27 27 26 26 27 27 27 27 26 26 26 25 24 24 24 24 25 25 24 25 26 25 25 25 24 25 25 25 25 25 25 25 25 26 26 26 26 26
Wind_Direction
37 39 39 39 42 43 43 41 38 38 39 39 37 36 35 34 34 37 37 30 32 37 20 19 12 337 310 278 269 278 283 271 266 265 264 257 255 259 262 260 259 261 261
32 35 36 37 40 41 40 38 36 35 35 34 33 35 35 34 31 29 32 25 19 13 12 7 360 4 355 323 297 286 279 277 274 270 266 265 265 263 263 264 266 264 263
28 31 34 35 39 39 35 33 32 33 32 30 29 30 33 32 31 33 31 28 20 11 15 17 18 22 8 355 324 310 294 282 278 274 271 271 268 268 266 268 269 267 266
26 27 30 32 34 34 30 29 30 30 28 27 27 26 30 31 29 32 29 27 26 26 25 20 24 18 3 347 334 322 312 298 287 282 280 278 273 267 266 268 271 270 268
22 24 26 28 28 28 27 27 25 24 24 25 25 24 27 27 26 27 23 25 27 30 27 18 14 8 359 349 338 328 320 314 305 295 290 288 283 274 272 271 272 273 271
13 19 22 22 21 21 23 22 22 21 21 21 22 24 23 22 21 23 22 20 25 27 22 18 16 9 356 344 337 327 319 312 306 300 295 293 289 284 276 272 274 276 273
5 8 17 21 20 18 19 18 18 19 19 17 19 21 20 19 19 18 17 15 19 20 20 19 14 6 355 343 334 326 320 316 310 304 299 297 292 289 278 275 276 279 277
3 357 7 17 16 15 15 13 13 15 17 15 15 16 18 16 13 12 11 11 11 12 12 8 2 357 350 342 336 330 324 322 317 310 306 302 297 294 288 280 279 279 280
352 353 356 2 8 8 9 8 8 12 13 13 12 11 11 10 8 7 6 7 4 1 357 353 352 350 346 340 335 332 328 325 321 316 310 306 303 298 294 285 282 282 282
320 332 346 351 354 358 359 0 2 2 4 6 7 6 6 5 2 359 358 358 356 352 347 343 344 344 341 337 334 330 330 328 323 319 314 311 308 304 297 289 285 285 284
306 323 330 334 338 344 349 355 358 357 357 357 359 359 360 359 356 351 347 345 344 341 339 337 336 336 337 336 332 328 327 324 321 320 320 317 314 309 304 298 292 287 285
303 318 324 322 324 331 338 343 347 349 352 355 358 358 354 353 352 349 345 341 339 337 335 334 333 333 332 330 327 328 326 324 322 320 316 314 314 313 310 302 297 294 291
293 305 310 311 310 315 323 331 335 337 341 345 349 352 351 347 346 344 342 340 338 335 333 332 333 332 332 330 326 328 326 322 322 322 319 315 316 313 311 304 299 297 295
286 291 293 297 298 304 314 320 324 327 331 336 341 342 343 342 339 334 334 336 336 335 333 332 331 330 329 327 325 325 326 323 320 320 319 317 317 317 314 309 304 301 298
279 281 285 284 288 293 300 307 314 317 320 326 332 335 334 334 333 331 330 331 333 333 332 331 329 328 329 327 325 324 326 324 322 320 318 316 317 316 313 310 306 304 302
275 275 280 284 283 286 291 297 302 307 313 319 323 325 326 327 326 327 327 328 330 331 333 332 331 330 330 331 329 326 326 325 323 321 317 315 317 317 315 312 309 304 302
272 271 274 275 275 281 287 289 293 297 305 310 314 316 318 320 320 323 327 331 332 332 332 331 330 329 329 329 327 326 325 322 320 319 316 315 318 318 316 313 311 308 305
270 273 275 272 274 276 280 283 286 290 296 302 306 309 311 314 318 320 323 324 326 327 329 329 328 328 327 326 324 324 323 321 319 317 316 316 316 315 314 312 310 308 307
265 272 277 275 275 275 277 281 285 288 292 297 302 304 307 309 313 316 318 318 318 321 323 325 325 324 324 325 324 322 321 320 317 315 314 314 315 314 313 311 310 309 309
266 268 273 274 273 274 276 279 281 286 290 294 299 301 303 305 309 311 313 313 314 315 318 321 322 321 319 319 319 317 317 317 316 315 314 314 314 314 313 312 311 310 309
264 266 269 270 270 271 275 276 278 283 289 293 297 297 301 304 306 306 308 309 310 311 312 315 317 318 317 316 317 315 314 314 313 313 313 313 313 312 312 312 311 309 309
262 263 264 265 266 270 272 273 276 281 287 291 294 295 298 300 302 304 305 305 306 307 308 310 311 314 314 313 313 313 312 311 310 310 311 312 312 311 311 310 310 309 309
263 264 263 265 266 268 270 272 276 279 285 290 292 293 296 297 298 299 301 303 304 304 304 306 307 309 310 309 309 310 310 310 309 309 310 311 312 311 311 311 310 310 310
261 262 262 264 265 268 270 271 275 280 284 287 290 292 294 295 296 297 298 299 301 302 303 304 306 308 309 309 308 308 308 309 308 308 309 309 310 310 310 311 311 310 309
259 263 262 262 265 268 270 271 275 279 282 284 287 289 290 291 293 294 296 297 298 300 301 303 305 307 307 307 306 306 307 307 308 309 310 309 309 310 311 312 312 311 310
257 260 262 264 265 267 268 271 275 278 281 282 284 285 286 288 289 291 293 295 296 297 299 301 305 307 306 306 305 305 306 306 306 308 309 309 307 308 310 311 311 310 310
Height
5928 5926 5924 5922 5920 5919 5917 5915 5913 5911 5910 5908 5906 5904 5902 5901 5900 5899 5898 5896 5896 5895 5895 5894 5894 5893 5893 5892 5892 5892 5891 5891 5890 5890 5890 5890 5890 5889 5889 5889 5888 5888 5888
5929 5927 5925 5923 5921 5919 5918 5916 5914 5913 5911 5909 5907 5905 5903 5902 5900 5899 5898 5897 5896 5895 5895 5894 5893 5893 5892 5891 5891 5890 5890 5889 5889 5888 5888 5888 5888 5887 5887 5886 5886 5885 5885
5930 5928 5926 5924 5922 5920 5919 5917 5915 5914 5912 5910 5908 5906 5904 5903 5901 5900 5898 5897 5896 5895 5894 5893 5893 5892 5891 5891 5890 5889 5889 5888 5887 5887 5886 5886 5885 5884 5884 5884 5883 5883 5882
5931 5929 5927 5924 5923 5920 5920 5918 5916 5915 5913 5911 5909 5907 5905 5904 5902 5900 5899 5897 5896 5895 5894 5893 5892 5891 5891 5890 5889 5888 5887 5887 5886 5885 5884 5884 5883 5882 5882 5881 5880 5879 5878
5931 5929 5927 5925 5924 5922 5921 5919 5917 5915 5914 5912 5910 5908 5906 5905 5903 5901 5899 5898 5896 5895 5894 5893 5892 5891 5890 5889 5888 5887 5886 5885 5884 5883 5882 5881 5880 5879 5878 5878 5877 5876 5875
5931 5929 5927 5926 5924 5923 5921 5919 5918 5916 5914 5912 5911 5909 5907 5905 5903 5901 5900 5898 5896 5895 5894 5893 5892 5890 5889 5888 5887 5885 5884 5883 5881 5880 5879 5878 5877 5876 5875 5874 5873 5872 5871
5930 5929 5927 5926 5924 5923 5921 5920 5918 5917 5915 5913 5911 5909 5908 5906 5904 5902 5900 5899 5897 5895 5894 5893 5891 5890 5889 5887 5885 5883 5882 5880 5879 5878 5877 5875 5874 5873 5872 5871 5870 5869 5868
5929 5928 5926 5925 5924 5923 5922 5920 5918 5917 5915 5913 5911 5910 5908 5906 5904 5902 5901 5899 5897 5895 5894 5892 5891 5889 5887 5886 5884 5882 5880 5878 5877 5875 5874 5872 5871 5869 5868 5867 5866 5865 5864
5927 5927 5926 5925 5924 5923 5921 5920 5918 5917 5915 5913 5911 5909 5908 5906 5904 5902 5901 5899 5897 5895 5893 5892 5890 5888 5886 5884 5882 5880 5878 5876 5874 5873 5871 5869 5868 5866 5865 5863 5862 5862 5861
5926 5926 5925 5924 5923 5922 5921 5920 5918 5916 5915 5913 5911 5909 5907 5905 5903 5902 5900 5898 5896 5894 5892 5891 5889 5886 5884 5882 5880 5878 5876 5874 5872 5870 5869 5867 5865 5863 5861 5860 5859 5858 5857
5925 5924 5923 5923 5922 5921 5920 5919 5917 5916 5914 5912 5910 5908 5906 5905 5903 5901 5899 5897 5895 5893 5891 5889 5887 5884 5882 5880 5878 5876 5874 5871 5869 5867 5866 5864 5861 5860 5858 5856 5855 5854 5853
5922 5922 5922 5921 5920 5920 5919 5918 5916 5915 5913 5911 5909 5908 5905 5903 5901 5900 5898 5895 5893 5891 5889 5887 5885 5882 5880 5877 5875 5873 5871 5869 5866 5864 5863 5861 5859 5857 5855 5853 5851 5850 5848
5920 5920 5920 5920 5919 5918 5918 5916 5915 5913 5912 5910 5908 5906 5904 5902 5900 5898 5896 5894 5891 5889 5887 5885 5882 5880 5877 5875 5872 5870 5868 5866 5864 5861 5860 5858 5856 5854 5852 5850 5848 5846 5844
5917 5917 5917 5917 5917 5916 5915 5915 5913 5912 5910 5909 5907 5905 5903 5901 5899 5897 5894 5892 5889 5887 5885 5882 5880 5877 5875 5872 5870 5868 5865 5863 5861 5859 5857 5855 5853 5851 5848 5846 5844 5842 5840
5914 5914 5914 5914 5914 5913 5913 5912 5911 5910 5908 5907 5905 5903 5902 5899 5897 5894 5892 5890 5887 5885 5882 5879 5877 5874 5872 5870 5867 5865 5862 5860 5858 5855 5853 5852 5849 5847 5845 5843 5840 5838 5836
5911 5911 5911 5910 5910 5910 5910 5910 5909 5908 5906 5905 5903 5901 5899 5897 5895 5892 5890 5887 5885 5882 5880 5877 5875 5872 5869 5867 5864 5862 5859 5857 5855 5852 5850 5848 5846 5844 5841 5839 5836 5834 5831
5906 5907 5907 5907 5907 5907 5907 5906 5906 5905 5904 5902 5901 5899 5897 5895 5892 5890 5887 5885 5882 5880 5877 5875 5872 5869 5867 5864 5862 5859 5857 5854 5852 5849 5847 5845 5842 5840 5837 5834 5832 5829 5826
5902 5902 5902 5903 5903 5903 5903 5903 5902 5901 5900 5899 5897 5896 5894 5891 5889 5887 5884 5882 5879 5877 5875 5872 5869 5867 5864 5861 5859 5856 5853 5851 5848 5846 5843 5841 5838 5835 5833 5830 5827 5824 5821
5896 5897 5898 5898 5899 5899 5899 5898 5898 5897 5896 5895 5894 5892 5890 5888 5886 5883 5881 5879 5876 5874 5871 5869 5866 5863 5861 5858 5855 5852 5850 5847 5844 5842 5839 5836 5833 5831 5828 5825 5822 5819 5816
5890 5891 5892 5893 5894 5894 5894 5894 5893 5893 5892 5891 5889 5888 5886 5884 5882 5880 5877 5875 5873 5870 5868 5865 5862 5860 5857 5854 5851 5848 5846 5843 5840 5837 5834 5831 5828 5825 5822 5820 5816 5813 5810
5884 5885 5887 5888 5889 5889 5889 5889 5888 5888 5887 5886 5885 5883 5882 5880 5878 5875 5873 5871 5868 5866 5863 5861 5858 5855 5852 5849 5847 5844 5841 5838 5835 5832 5829 5826 5823 5820 5817 5814 5811 5808 5804
5878 5879 5880 5882 5883 5883 5883 5883 5883 5882 5882 5881 5879 5878 5876 5875 5873 5870 5868 5866 5863 5861 5859 5856 5853 5850 5847 5845 5842 5839 5836 5833 5830 5827 5824 5820 5817 5814 5811 5808 5804 5801 5798
5872 5873 5874 5875 5876 5877 5877 5877 5876 5876 5876 5875 5873 5872 5871 5869 5867 5865 5862 5860 5858 5855 5853 5851 5848 5845 5842 5839 5836 5833 5830 5827 5824 5821 5818 5814 5811 5808 5805 5801 5798 5795 5792
5865 5866 5868 5869 5870 5870 5870 5871 5871 5870 5869 5869 5867 5866 5864 5862 5860 5858 5856 5854 5852 5849 5847 5844 5842 5839 5836 5833 5830 5826 5824 5821 5818 5815 5811 5808 5805 5802 5799 5795 5792 5789 5785
5858 5859 5860 5862 5862 5863 5863 5863 5863 5863 5862 5861 5860 5859 5857 5855 5854 5852 5850 5847 5845 5843 5841 5838 5835 5832 5829 5827 5823 5820 5817 5814 5811 5808 5805 5802 5799 5796 5793 5789 5786 5783 5780
5850 5852 5853 5854 5855 5855 5855 5855 5855 5855 5854 5854 5852 5851 5850 5848 5846 5844 5843 5840 5839 5836 5834 5832 5829 5826 5823 5820 5816 5813 5811 5808 5805 5802 5799 5796 5793 5790 5787 5783 5780 5776 5773